Welcome to the New NWS' Forecast!
Most changes are behind the scenes, but click here for differences you might notice.

Regional Weather Roundup (RWR)

Issued by Albany, NY (ALY)

                            
657 
ASUS41 KALY 201210
RWRALY

NEW YORK STATE HOURLY WEATHER ROUNDUP
NATIONAL WEATHER SERVICE ALBANY NY
800 AM EDT MON AUG 20 2018

NOTE: "FAIR" INDICATES FEW OR NO CLOUDS BELOW 12,000 FEET WITH NO
SIGNIFICANT WEATHER AND/OR NO OBSTRUCTIONS TO VISIBILITY.

NYZ032-033-038>043-046>054-057>066-NYZ062>081-082-084-201300-
EAST

  
CITY           SKY/WX    TMP DP  RH WIND       PRES   REMARKS
ALBANY         FAIR      64  59  83 NW5       30.19R                  
GLENS FALLS    FAIR      62  61  96 CALM      30.19R                  
POUGHKEEPSIE   CLOUDY    65  58  78 N5        30.14F                  
NEWBURGH       CLOUDY    66  61  82 NE12      30.16S                  
MONTGOMERY     CLOUDY    65  59  81 N9        30.15S                  
WHITE PLAINS   PTSUNNY   66  61  84 NE5       30.14R                  
ISLIP          CLOUDY    67  66  97 NE10      30.13R                  
NEW YORK CITY  CLOUDY    70  61  73 NE14      30.13R                  
CENTRAL PARK   CLOUDY    68  61  78 N5        30.16R                  
$$

NYZ005>009-017-018-044>046-055-056-201300-
CENTRAL

  
CITY           SKY/WX    TMP DP  RH WIND       PRES   REMARKS
FULTON         CLOUDY    66  59  78 VRB5      30.15R                  
SYRACUSE       PTSUNNY   64  63  96 E3        30.15R                  
ROME           FAIR      62  59  90 E6        30.19S                  
ELMIRA         FAIR      63  60  90 CALM      30.15R                  
BINGHAMTON     FAIR      61  57  87 SE6       30.17R                  
MONTICELLO     FAIR      59  57  93 NE5       30.19S                  
$$

NYZ026>034-041>043-087-201300-
NORTH

  
CITY           SKY/WX    TMP DP  RH WIND       PRES   REMARKS
WATERTOWN      PTSUNNY   64  61  90 E3        30.15R                  
FORT DRUM      NOT AVBL                                               
OGDENSBURG     PTSUNNY   63  61  93 CALM      30.16R                  
MASSENA        CLOUDY    65  60  84 CALM      30.17R                  
SARANAC LAKE   FAIR      55  54  96 CALM      30.20S                  
PLATTSBURGH    FAIR      60  58  92 CALM      30.18R                  
$$

NYZ001>004-010>016-019>021-085-201300-
WEST

  
CITY           SKY/WX    TMP DP  RH WIND       PRES   REMARKS
NIAGARA FALLS  FAIR      64  61  90 SE5       30.10R                  
BUFFALO        PTSUNNY   65  62  90 SE6       30.11R                  
DUNKIRK        CLOUDY    67  64  90 NE3       30.10R                  
JAMESTOWN      CLOUDY    64  61  90 SE5       30.14R                  
WELLSVILLE     CLOUDY    63  63 100 CALM      30.17R                  
ROCHESTER      PTSUNNY   63  63 100 CALM      30.13R                  
PENN YAN       FAIR      65  62  90 CALM      30.15R                  
$$

             KEY
       WCI = WIND CHILL INDEX
       VSB = VISIBILITY
       HX  = HEAT INDEX
$$